Preview of NWS' New Version of Forecast
This preview is not operational and should not be used for support decisions.

Regional Weather Roundup (RWR)

Issued by National Weather Service (NWS)

                            
000
ASUS44 KJAN 192310
RWRMS 

MISSISSIPPI HOURLY WEATHER ROUNDUP
NATIONAL WEATHER SERVICE JACKSON MS
600 PM CDT THU SEP 19 2019

NOTE: "FAIR: INDICATES FEW OR NO CLOUDS BELOW 12,000 FEET WITH NO
SIGNIFICANT WEATHER AND/OR OBSTRUCTIONS TO VISIBILITY.

MSZ001>002-007>008-010>013-018>021-025>028-034>036-200000-
NORTHWEST MISSISSIPPI
  
CITY           SKY/WX    TMP DP  RH WIND       PRES   REMARKS
BATESVILLE     FAIR      84  72  65 VRB3G13   29.99R                  
CLARKSDALE       N/A     88  73  62 VRB3G14   29.99R HX  96           
CLEVELAND      FAIR      86  68  55 SE7       29.96R THUNDER          
GREENWOOD      FAIR      88  72  58 SE10      29.98R HX  94           
GREENVILLE     FAIR      83  72  69 SE9       29.95R                  
OXFORD         FAIR      81  70  69 SE12      30.02S                  
TUNICA           N/A     82  72  69 E6        29.98R                  
WINONA         FAIR      82  72  71 SE5       30.01R                  
$$

MSZ003>006-009-014>017-022>024-029>033-037>039-200000-
NORTHEAST MISSISSIPPI
  
CITY           SKY/WX    TMP DP  RH WIND       PRES   REMARKS
ABERDEEN       FAIR      84  66  54 SE5       30.04R                  
COLUMBUS AFB   FAIR      84  71  64 SE8       30.02S                  
CORINTH        FAIR      82  70  65 SE5       30.04S                  
GOLDN TRIANGLE FAIR      86  72  62 SE10      30.03S HX  92           
STARKVILLE     FAIR      84  70  61 SE7       30.03S                  
TUPELO         NOT AVBL                                               
$$

MSZ040-058-200000-
CENTRAL MISSISSIPPI
  
CITY           SKY/WX    TMP DP  RH WIND       PRES   REMARKS
JACKSON INTL   PTSUNNY   81  70  69 NE9       30.00S                  
JACKSON HAWKNS FAIR      81  69  67 E9        30.00R                  
MADISON        FAIR      73  72  94 E8G17     30.01S THUNDER          
MERIDIAN KEY   PTSUNNY   85  71  63 SE10      30.02S HX  90           
MERIDIAN NAS   PTSUNNY   85  70  60 SE7       30.03R                  
RAYMOND          N/A     84  72  65 VRB7      29.97F                  
VICKSBURG VKS  CLEAR     91  70  49 SW10      29.96R HX  97           
$$

MSZ059>079-200000-
SOUTH MISSISSIPPI
  
CITY           SKY/WX    TMP DP  RH WIND       PRES   REMARKS
BROOKHAVEN     FAIR      84  72  65 CALM      30.01R                  
HATTIESBURG    FAIR      77  71  82 E8        30.03R                  
LAUREL         CLEAR     76  71  86 SE7       30.04R                  
MCCOMB         FAIR      87  68  52 S7        29.99R HX  90           
NATCHEZ        FAIR      86  73  65 SW8       29.99R HX  93           
PINE BELT      FAIR      73  72  94 E3        30.05R                  
$$

MSZ080>082-200000-
COASTAL MISSISSIPPI
  
CITY           SKY/WX    TMP DP  RH WIND       PRES   REMARKS
BAY ST LOUIS   MOSUNNY   82  73  74 SE14G20   30.01R                  
BILOXI         CLOUDY    76  71  85 SE15      30.02S                  
PASCAGOULA     FAIR      79  72  79 E6        30.04                   
GULFPORT       LGT RAIN  80  70  71 E13       30.01                   
$$

LAZ007>009-015>016-023>026-200000-
NORTHEAST LOUISIANA
  
CITY           SKY/WX    TMP DP  RH WIND       PRES   REMARKS
BASTROP        FAIR      82  70  66 SW6       29.98R                  
TALLULAH/VBURG FAIR      91  67  44 VRB5      29.96R HX  94           
VIDALIA        FAIR      81  70  69 W6        29.98R                  
$$